"Pseudo-MPEC" for P11Osmu

Created 2023 Nov 30 6:22:05 UT using Find_Orb

Click here for an explanation of pseudo-MPECs

 
 Astrometry: 
     P11Osmu* C2023 11 19wtKa/Zd7.EY:OEa[J%AstrometryU$qxLCNredacted;FVclickvF51
     P11Osmu  C2023 11 19_[sY`4C@xZ(x9C'8_BM/!)gr[9oc9L9xhereaforf1GTAShIQ[l2F51
     P11Osmu  C2023 11 19M+T!n0^[(sNx\g$u??aexplanationQfa_an(0EcW17b@l1PPl2#F51

Station data:
(F51) Pan-STARRS 1, Haleakala  (N20.707234 W156.255910)  US/Hawaii.
   Observers J. Bulger, T. Lowe, A. Schultz, M. Willman. Measurers K.
   Chambers, S. Chastel, T. de Boer, L. Denneau, J. Fairlamb, H. Flewelling,
   M. Huber, C.-C. Lin, E. Magnier, Y. Ramanjooloo, R. Wainscoat, R. Weryk.
   1.8-m Ritchey-Chrétien + CCD.

Orbital elements:  P11Osmu
   Perihelion 2024 Jun 25.58710 +/- 247 TT = 14:05:25 (JD 2460487.08710)
Epoch 2023 Nov 19.0 TT = JDT 2460267.5   Earth MOID: 0.2623      AutoNEOCP
M 291.97731195 +/- 60               (J2000 ecliptic)
n   0.30977543 +/- 0.22             Peri.  321.14721 +/- 90
a   2.16324013 +/- 1.02             Node   219.11738 +/- 44
e   0.4404823 +/- 0.266             Incl.   21.94365 +/- 31
P   3.18                   H 19.45  G  0.15   U 11.7  SR
q 1.21037105 +/- 0.836    Q 3.11610922 +/- 29.4
From 3 observations 2023 Nov. 19 (54.9 min); mean residual 0".24
Residuals in arcseconds: 
231119 F51  .08+  .30+    231119 F51  .12-  .45-    231119 F51  .04+  .15+    

Ephemerides (geocentric):
Date (UTC) HH   RA             Dec           delta  r     elong  mag " sig PA
---- --------  ------------   ------------  ------ ------ -----  --- --------
2023 11 30 06  04 00 12.429   +03 37 37.33  1.2021 2.1595 161.3 22.1  34d  95
2023 11 30 07  04 00 09.169   +03 37 00.47  1.2020 2.1593 161.2 22.1  34d  95
2023 11 30 08  04 00 05.909   +03 36 23.63  1.2019 2.1591 161.2 22.1  34d  95
2023 11 30 09  04 00 02.650   +03 35 46.80  1.2018 2.1589 161.2 22.1  34d  94
2023 11 30 10  03 59 59.390   +03 35 09.99  1.2016 2.1587 161.1 22.1  34d  94
2023 11 30 11  03 59 56.130   +03 34 33.19  1.2015 2.1585 161.1 22.1  34d  94
2023 11 30 12  03 59 52.870   +03 33 56.42  1.2014 2.1582 161.1 22.1  34d  94
2023 11 30 13  03 59 49.611   +03 33 19.66  1.2013 2.1580 161.0 22.1  34d  94
2023 11 30 14  03 59 46.351   +03 32 42.92  1.2012 2.1578 161.0 22.1  34d  94
2023 11 30 15  03 59 43.091   +03 32 06.20  1.2011 2.1576 161.0 22.1  34d  94
2023 11 30 16  03 59 39.831   +03 31 29.50  1.2010 2.1574 160.9 22.1  34d  94
2023 11 30 17  03 59 36.572   +03 30 52.82  1.2009 2.1572 160.9 22.1  34d  94
2023 11 30 18  03 59 33.312   +03 30 16.15  1.2008 2.1570 160.9 22.1  34d  94
2023 11 30 19  03 59 30.052   +03 29 39.51  1.2007 2.1567 160.8 22.1  34d  94
2023 11 30 20  03 59 26.793   +03 29 02.88  1.2006 2.1565 160.8 22.1  34d  94
2023 11 30 21  03 59 23.533   +03 28 26.27  1.2005 2.1563 160.8 22.1  34d  94
2023 11 30 22  03 59 20.274   +03 27 49.68  1.2004 2.1561 160.7 22.1  34d  94
2023 11 30 23  03 59 17.015   +03 27 13.10  1.2003 2.1559 160.7 22.1  34d  94
2023 12 01 00  03 59 13.756   +03 26 36.55  1.2002 2.1557 160.7 22.1  34d  94
2023 12 01 01  03 59 10.496   +03 26 00.01  1.2001 2.1554 160.6 22.1  34d  94
2023 12 01 02  03 59 07.237   +03 25 23.50  1.2000 2.1552 160.6 22.1  34d  94
2023 12 01 03  03 59 03.978   +03 24 47.00  1.1999 2.1550 160.6 22.1  34d  94
2023 12 01 04  03 59 00.720   +03 24 10.52  1.1998 2.1548 160.5 22.1  34d  94
2023 12 01 05  03 58 57.461   +03 23 34.06  1.1997 2.1546 160.5 22.1  34d  94
2023 12 01 06  03 58 54.202   +03 22 57.62  1.1996 2.1544 160.5 22.1  34d  94
2023 12 01 07  03 58 50.944   +03 22 21.20  1.1995 2.1542 160.4 22.1  34d  94
2023 12 01 08  03 58 47.686   +03 21 44.80  1.1994 2.1539 160.4 22.1  34d  94
2023 12 01 09  03 58 44.428   +03 21 08.41  1.1993 2.1537 160.4 22.1  34d  94
2023 12 01 10  03 58 41.170   +03 20 32.05  1.1992 2.1535 160.3 22.1  34d  94
2023 12 01 11  03 58 37.912   +03 19 55.70  1.1991 2.1533 160.3 22.1  34d  94
2023 12 01 12  03 58 34.654   +03 19 19.38  1.1990 2.1531 160.2 22.1  34d  94
2023 12 01 13  03 58 31.397   +03 18 43.07  1.1989 2.1529 160.2 22.1  34d  94
2023 12 01 14  03 58 28.139   +03 18 06.79  1.1989 2.1526 160.2 22.1  34d  94
2023 12 01 15  03 58 24.882   +03 17 30.52  1.1988 2.1524 160.1 22.1  34d  94
2023 12 01 16  03 58 21.626   +03 16 54.27  1.1987 2.1522 160.1 22.1  34d  94
2023 12 01 17  03 58 18.369   +03 16 18.04  1.1986 2.1520 160.1 22.1  34d  94
2023 12 01 18  03 58 15.112   +03 15 41.84  1.1985 2.1518 160.0 22.1  34d  94
2023 12 01 19  03 58 11.856   +03 15 05.65  1.1984 2.1516 160.0 22.1  34d  94
2023 12 01 20  03 58 08.600   +03 14 29.48  1.1983 2.1513 160.0 22.1  34d  94
2023 12 01 21  03 58 05.345   +03 13 53.33  1.1982 2.1511 159.9 22.1  34d  94
2023 12 01 22  03 58 02.089   +03 13 17.20  1.1981 2.1509 159.9 22.1  34d  94
2023 12 01 23  03 57 58.834   +03 12 41.10  1.1980 2.1507 159.8 22.1  34d  94
2023 12 02 00  03 57 55.579   +03 12 05.01  1.1980 2.1505 159.8 22.1  34d  94
2023 12 02 01  03 57 52.324   +03 11 28.94  1.1979 2.1503 159.8 22.1  34d  94
2023 12 02 02  03 57 49.070   +03 10 52.89  1.1978 2.1501 159.7 22.1  34d  94
2023 12 02 03  03 57 45.816   +03 10 16.87  1.1977 2.1498 159.7 22.1  34d  94
2023 12 02 04  03 57 42.562   +03 09 40.86  1.1976 2.1496 159.7 22.1  34d  94
2023 12 02 05  03 57 39.308   +03 09 04.87  1.1975 2.1494 159.6 22.1  34d  94